Weather History for EBOS - August, 2013

Change the Weather History Date:

Sunday, August 25, 2013

  Actual Average Record
Temperature  
Mean Temperature 64 °F -  
Max Temperature 71 °F 65 °F 87 °F (2001)
Min Temperature 57 °F 52 °F 46 °F (1998)
Degree Days  
Heating Degree Days 1    
Growing Degree Days 14 (Base 50)    
Moisture  
Dew Point 56 °F    
Average Humidity 77    
Maximum Humidity 94    
Minimum Humidity 49    
Precipitation  
Precipitation 0.00 in - - ()
Sea Level Pressure  
Sea Level Pressure 29.87 in    
Wind  
Wind Speed 7 mph ()    
Max Wind Speed 16 mph    
Max Gust Speed -    
Visibility 5.4 miles    
Events Rain    
Averages and records for this station are not official NWS values.
T = Trace of Precipitation, MM = Missing Value Source: Averaged Metar Reports

Daily Weather History Graph

Daily Weather History Graph

Search for Another Location

Airport or City:

Trip Planner

Search our weather history database for the weather conditions in past years. The results will help you decide how hot, cold, wet, or windy it might be!

Date:

Astronomy

Aug. 25, 2013 Rise Set
Actual Time 6:50 AM CEST 8:49 PM CEST
Civil Twilight 6:15 AM CEST 9:24 PM CEST
Nautical Twilight 5:30 AM CEST 10:08 PM CEST
Astronomical Twilight 4:40 AM CEST 10:58 PM CEST
Moon 10:29 PM CEST (8/25) 12:16 PM CEST (8/25)
Length of Visible Light 15h 09m
Length of Day
13h 58m
Waning Gibbous, 78% of the Moon is Illuminated
Aug 25
Waning Gibbous
Aug 28
Last Quarter
Sep 5
New
Sep 12
First Quarter
Sep 19
Full

Hourly Weather History & Observations

Time (CEST) Temp. Dew Point Humidity Pressure Visibility Wind Dir Wind Speed Gust Speed Precip Events Conditions
12:20 AM 57.2 °F 53.6 °F 88% 29.80 in 2.2 mi Variable 2.3 mph - N/A   Scattered Clouds
12:50 AM 59.0 °F 55.4 °F 88% 29.80 in 2.2 mi ESE 3.5 mph - N/A   Scattered Clouds
1:20 AM 57.2 °F 55.4 °F 94% 29.80 in 2.2 mi East 3.5 mph - N/A   Scattered Clouds
1:50 AM 59.0 °F 55.4 °F 88% 29.80 in 2.2 mi East 4.6 mph - N/A   Mostly Cloudy
2:00 AM 58 °F 55 °F 86% 29.80 in 2 mi East 4.5 mph - -   Mist
2:20 AM 59.0 °F 55.4 °F 88% 29.80 in 2.2 mi East 3.5 mph - N/A   Mostly Cloudy
2:50 AM 59.0 °F 55.4 °F 88% 29.77 in 2.8 mi SE 5.8 mph - N/A   Mostly Cloudy
3:20 AM 59.0 °F 55.4 °F 88% 29.80 in 3.1 mi East 4.6 mph - N/A   Mostly Cloudy
3:50 AM 57.2 °F 53.6 °F 88% 29.77 in 3.7 mi East 5.8 mph - N/A   Mostly Cloudy
4:20 AM 59.0 °F 55.4 °F 88% 29.77 in 5.0 mi East 5.8 mph - N/A   Mostly Cloudy
4:50 AM 59.0 °F 55.4 °F 88% 29.77 in 5.6 mi East 8.1 mph - N/A   Mostly Cloudy
5:00 AM 59 °F 55 °F 81% 29.79 in 6 mi East 6.7 mph - -   Mostly Cloudy
5:20 AM 59.0 °F 55.4 °F 88% 29.77 in 3.1 mi East 10.4 mph - N/A Rain Light Rain
5:50 AM 59.0 °F 55.4 °F 88% 29.77 in 5.0 mi East 9.2 mph - N/A   Mostly Cloudy
6:20 AM 59.0 °F 55.4 °F 88% 29.77 in 5.0 mi East 8.1 mph - N/A   Mostly Cloudy
6:50 AM 59.0 °F 55.4 °F 88% 29.77 in 4.3 mi East 9.2 mph - N/A   Mostly Cloudy
7:20 AM 59.0 °F 55.4 °F 88% 29.80 in 4.3 mi East 10.4 mph - N/A   Mostly Cloudy
7:50 AM 59.0 °F 55.4 °F 88% 29.80 in 4.3 mi ENE 8.1 mph - N/A   Mostly Cloudy
8:00 AM 60 °F 56 °F 81% 29.81 in 4 mi ENE 8.9 mph - -   Partly Cloudy
8:20 AM 59.0 °F 55.4 °F 88% 29.80 in 5.0 mi East 10.4 mph - N/A   Mostly Cloudy
8:50 AM 60.8 °F 55.4 °F 82% 29.80 in 5.6 mi East 9.2 mph - N/A   Partly Cloudy
9:20 AM 62.6 °F 55.4 °F 77% 29.80 in 6.2 mi ENE 10.4 mph - N/A   Scattered Clouds
9:50 AM 62.6 °F 55.4 °F 77% 29.83 in 6.2 mi East 11.5 mph - N/A   Partly Cloudy
10:20 AM 62.6 °F 55.4 °F 77% 29.83 in 6.2 mi East 12.7 mph - N/A   Scattered Clouds
10:50 AM 62.6 °F 55.4 °F 77% 29.83 in 6.2 mi East 15.0 mph - N/A   Mostly Cloudy
11:00 AM 63 °F 54 °F 66% 29.85 in 16 mi East 15.7 mph - -   Mostly Cloudy
11:20 AM 62.6 °F 55.4 °F 77% 29.86 in 6.2 mi East 16.1 mph - N/A   Mostly Cloudy
11:50 AM 64.4 °F 55.4 °F 73% 29.86 in 6.2 mi East 16.1 mph - N/A   Mostly Cloudy
12:20 PM 66.2 °F 55.4 °F 68% 29.86 in 6.2 mi East 12.7 mph - N/A   Scattered Clouds
12:50 PM 68.0 °F 55.4 °F 64% 29.86 in 6.2 mi East 10.4 mph - N/A   Scattered Clouds
1:20 PM 68.0 °F 55.4 °F 64% 29.89 in 6.2 mi East 12.7 mph - N/A   Scattered Clouds
1:50 PM 68.0 °F 55.4 °F 64% 29.89 in 6.2 mi East 9.2 mph - N/A   Scattered Clouds
2:00 PM 69 °F 56 °F 54% 29.90 in 16 mi East 8.9 mph - -   Partly Cloudy
2:20 PM 69.8 °F 55.4 °F 60% 29.89 in 6.2 mi East 13.8 mph - N/A   Scattered Clouds
2:50 PM 69.8 °F 55.4 °F 60% 29.89 in 6.2 mi East 10.4 mph - N/A   Scattered Clouds
3:20 PM 71.6 °F 55.4 °F 57% 29.89 in 6.2 mi East 10.4 mph - N/A   Scattered Clouds
3:50 PM 71.6 °F 55.4 °F 57% 29.92 in 6.2 mi East 9.2 mph - N/A   Scattered Clouds
4:20 PM 71.6 °F 55.4 °F 57% 29.92 in 6.2 mi East 10.4 mph - N/A   Scattered Clouds
4:50 PM 69.8 °F 53.6 °F 56% 29.92 in 6.2 mi East 8.1 mph - N/A   Scattered Clouds
5:00 PM 69 °F 54 °F 49% 29.94 in 16 mi East 6.7 mph - -   Partly Cloudy
5:20 PM 69.8 °F 55.4 °F 60% 29.92 in 6.2 mi East 6.9 mph - N/A   Scattered Clouds
5:50 PM 69.8 °F 55.4 °F 60% 29.92 in 6.2 mi East 4.6 mph - N/A   Scattered Clouds
6:20 PM 68.0 °F 59.0 °F 73% 29.95 in 6.2 mi NNE 9.2 mph - N/A   Mostly Cloudy
6:50 PM 68.0 °F 60.8 °F 78% 29.95 in 6.2 mi NNE 8.1 mph - N/A   Mostly Cloudy
7:20 PM 68.0 °F 60.8 °F 78% 29.95 in 6.2 mi NE 10.4 mph - N/A Rain Light Rain Showers
7:50 PM 68.0 °F 60.8 °F 78% 29.95 in 4.3 mi NNE 9.2 mph - N/A   Mostly Cloudy
8:00 PM 68 °F 61 °F 71% 29.97 in 4 mi NNE 8.9 mph - - Rain Light Rain Showers
8:20 PM 66.2 °F 60.8 °F 83% 29.95 in 4.3 mi NNE 12.7 mph - N/A   Mostly Cloudy
8:50 PM 66.2 °F 60.8 °F 83% 29.98 in 3.7 mi NE 11.5 mph - N/A   Mostly Cloudy
9:20 PM 66.2 °F 60.8 °F 83% 29.98 in 3.7 mi NNE 10.4 mph - N/A   Mostly Cloudy
9:50 PM 66.2 °F 60.8 °F 83% 29.98 in 4.3 mi NE 9.2 mph - N/A   Scattered Clouds
10:20 PM 66.2 °F 60.8 °F 83% 29.98 in 4.3 mi NE 8.1 mph - N/A   Scattered Clouds
10:50 PM 64.4 °F 60.8 °F 88% 29.98 in 4.3 mi NE 5.8 mph - N/A   Scattered Clouds
11:00 PM 65 °F 60 °F 80% 29.99 in 4 mi NE 6.7 mph - -   Partly Cloudy
11:20 PM 60.8 °F 57.2 °F 88% 29.98 in 3.7 mi Variable 2.3 mph - N/A   Partly Cloudy
11:50 PM 60.8 °F 57.2 °F 88% 30.01 in 3.7 mi Calm Calm - N/A   Partly Cloudy